Location: Unspecified
(0.0000°N, 0.0000°E)
Time: 07:49:11
(UTC+00:00)

CAPRICORN - Visible Passes

Search period start: 23 October 2019 00:00
Search period end: 02 November 2019 00:00
Orbit: 325 x 40040 km, 64.5° (Epoch: 16 April)

Date Brightness Start Highest point End Pass type
(mag) Time Alt. Az. Time Alt. Az. Time Alt. Az.
23 Oct ? 11:18:51 10° E 15:59:19 55° NNE 19:44:31 10° N visible
24 Oct ? 11:14:12 10° E 15:54:53 55° NNE 19:40:33 10° N visible
25 Oct ? 11:09:33 10° E 15:50:27 55° NNE 19:36:34 10° N visible
26 Oct ? 11:04:54 10° E 15:46:01 55° NNE 19:32:36 10° N visible
27 Oct ? 11:00:14 10° E 15:41:35 55° NNE 19:28:38 10° N visible
28 Oct ? 10:55:35 10° E 15:37:09 56° NNE 19:24:39 10° N visible
29 Oct ? 10:50:56 10° E 15:32:43 56° NNE 19:20:41 10° N visible
30 Oct ? 10:46:17 10° E 15:28:16 56° NNE 19:16:42 10° N visible
31 Oct ? 10:41:38 10° E 15:23:50 56° NNE 19:12:44 10° N visible
01 Nov ? 10:36:59 10° E 15:19:24 56° NNE 19:08:46 10° N visible
